sat.trackr.live / text

‹ back to catalog

STARLINK-30781

NORAD 58123 · 2023-162F

PAYLOAD ACTIVE UNKNOWN

§ Identity

Operator
Country
US
Launch date
2023-10-22
Launch site
AFETR
Launch vehicle
Mass (kg)
RCS (m²)

Purposes: comms

External: N2YO · Heavens-Above · Gunter

§ Orbital elements

Epoch: 2026-05-25T03:49:21.868032Z

Period
94.27 min
Inclination
43.0063°
Eccentricity
0.0001545
Mean motion
15.27578775 rev/d
Perigee alt
482.0 km
Apogee alt
484.1 km
Semi-major
6,861.2 km
B*
1.0956e-4
RAAN
60.5051°
Arg perigee
252.3681°
Mean anomaly
107.7002°
Rev number
14,400

§ Raw data

STARLINK-307811 58123U 23162F   26145.15928088  .00002754  00000+0  10956-3 0  99932 58123  43.0063  60.5051 0001545 252.3681 107.7002 15.27578775144006

JSON: /api/v1/satellites/58123 · /tle

For live sub-satellite position, see the globe view (requires WebGL).

§ Visibility from observer

Set your observer location to see the next 7 days of passes ≥ 10°. The values pass through the URL so the page stays shareable.

No JS? Fill the form by hand. The geolocation button needs JavaScript.